Ship Status Report: callsign BAREU11

sailwx.info

Track history (hours):
 
Tides and Currents Weather Stations Pressure Air Temp Water Temp Dewpoint Dewpoint Depression Visibility Wind Speed Wind Dir Waves Ship Positions

Callsign BAREU11 (name unknown)

Last reported at 2014-Jul-30 05:00 UTC. Time now 2014-Jul-30 07:04 UTC.
Position S 26°42' W 073°24'.

Barometer 1018.8 mb

Date/timePositionNaut miles runAvg speedWind from/ knotsBaromVisibWave heightAir tempDewpointWater temp
2014-Jul-30 05:00S 26°42' W 073°24'1918.8 1018.8
2014-Jul-30 04:00S 27°00' W 073°18'1818.0 1018.5
2014-Jul-30 03:00S 27°18' W 073°18'1918.8 1018.6
2014-Jul-30 02:00S 27°36' W 073°12'1918.8 1018.2
2014-Jul-30 01:00S 27°54' W 073°06'1313.1 1017.9
2014-Jul-30 00:00S 28°06' W 073°00'1918.8 1017.9
2014-Jul-29 23:00S 28°24' W 072°54'1818.0 1018.0
2014-Jul-29 22:00S 28°42' W 072°54'1918.8 1017.4
2014-Jul-29 21:00S 29°00' W 072°48'5618.7 1018.0
2014-Jul-29 18:00S 29°54' W 072°30'1918.7 1019.5
2014-Jul-29 17:00S 30°12' W 072°24'1818.0 1019.9
2014-Jul-29 16:00S 30°30' W 072°24'1313.1 1020.8
2014-Jul-29 15:00S 30°42' W 072°18'1918.7 1020.8
2014-Jul-29 14:00S 31°00' W 072°12'1918.7 1020.6
2014-Jul-29 13:00S 31°18' W 072°06'3718.7 1021.2
2014-Jul-29 11:00S 31°54' W 071°54'1918.7 1021.9
2014-Jul-29 10:00S 32°12' W 071°48'1818.0 1021.6
2014-Jul-29 09:00S 32°30' W 071°48'1313.0 1020.8
2014-Jul-29 08:00S 32°42' W 071°42'1918.7 1020.5
2014-Jul-29 07:00S 33°00' W 071°36'0 0.0 1020.3
2014-Jul-29 01:00S 33°00' W 071°36'0 0.0 1019.1
2014-Jul-29 00:00S 33°00' W 071°36'0 0.0 1018.5
2014-Jul-28 13:00S 33°00' W 071°36'0 0.0 1019.6
2014-Jul-27 13:00S 33°00' W 071°36'1313.0 1020.4
2014-Jul-27 12:00S 32°48' W 071°42'1918.7 1020.7
2014-Jul-27 11:00S 32°30' W 071°48'1918.7 1020.4
2014-Jul-27 10:00S 32°12' W 071°54'1918.7 1019.7
2014-Jul-27 09:00S 31°54' W 072°00'1818.0 1020.4
2014-Jul-27 08:00S 31°36' W 072°00'2524.5 1020.0
2014-Jul-27 07:00S 31°12' W 072°06'1918.7 1020.1
2014-Jul-27 06:00S 30°54' W 072°12'1918.7 1020.2
2014-Jul-27 05:00S 30°36' W 072°18'1918.7 1021.0
2014-Jul-27 04:00S 30°18' W 072°24'1918.7 1021.2
2014-Jul-27 03:00S 30°00' W 072°30'1918.7 1020.9
2014-Jul-27 02:00S 29°42' W 072°36'2524.6 1020.7
2014-Jul-27 01:00S 29°18' W 072°42'1918.7 1020.5
2014-Jul-27 00:00S 29°00' W 072°48'1918.8 1020.1
2014-Jul-26 23:00S 28°42' W 072°54'1918.8 1019.7
2014-Jul-26 22:00S 28°24' W 073°00'1818.0 1019.3
2014-Jul-26 21:00S 28°06' W 073°00'1918.8 1018.8
2014-Jul-26 20:00S 27°48' W 073°06'1918.8 1018.7
2014-Jul-26 19:00S 27°30' W 073°12'1918.8 1019.0
2014-Jul-26 18:00S 27°12' W 073°18'1918.8 1019.4
2014-Jul-26 17:00S 26°54' W 073°24'1918.8 1020.2
2014-Jul-26 16:00S 26°36' W 073°30'1918.8 1020.3
2014-Jul-26 15:00S 26°18' W 073°36'1918.8 1020.4
2014-Jul-26 14:00S 26°00' W 073°42'2524.6 1020.4
2014-Jul-26 13:00S 25°36' W 073°48'3618.2 1020.1
2014-Jul-26 11:00S 25°00' W 073°54'1918.8 1019.3
2014-Jul-26 10:00S 24°42' W 074°00'1918.8 1018.6
2014-Jul-26 09:00S 24°24' W 074°06'1918.8 1018.7
2014-Jul-26 08:00S 24°06' W 074°12'7418.5 1019.0
2014-Jul-26 04:00S 22°54' W 074°30'1918.8 1020.0
2014-Jul-26 03:00S 22°36' W 074°36'1818.0 1019.9
2014-Jul-26 02:00S 22°18' W 074°36'1918.8 1019.1
2014-Jul-26 01:00S 22°00' W 074°42'1918.8 1018.3
2014-Jul-26 00:00S 21°42' W 074°48'1918.8 1018.3
2014-Jul-25 23:00S 21°24' W 074°54'1918.8 1017.3
2014-Jul-25 22:00S 21°06' W 075°00'1918.9 1016.9
2014-Jul-25 21:00S 20°48' W 075°06'2524.6 1016.7
2014-Jul-25 20:00S 20°24' W 075°12'1818.0 1016.7
2014-Jul-25 19:00S 20°06' W 075°12'1918.9 1017.1
2014-Jul-25 18:00S 19°48' W 075°18'2524.7 1017.9
2014-Jul-25 17:00S 19°24' W 075°24'3818.9 1018.5
2014-Jul-25 15:00S 18°48' W 075°36'1918.9 1018.3
2014-Jul-25 14:00S 18°30' W 075°42'1818.0 1018.1
2014-Jul-25 13:00S 18°12' W 075°42'1918.9 1017.1
2014-Jul-25 12:00S 17°54' W 075°48'1918.9 1016.0
2014-Jul-25 11:00S 17°36' W 075°54'1918.9 1015.0
2014-Jul-25 10:00S 17°18' W 076°00'2524.7 1013.9
2014-Jul-25 09:00S 16°54' W 076°06'1918.9 1013.4
2014-Jul-25 08:00S 16°36' W 076°12'1918.9 1013.8
2014-Jul-25 07:00S 16°18' W 076°18'3618.2 1014.2
2014-Jul-25 05:00S 15°42' W 076°24'1918.9 1013.9
2014-Jul-25 04:00S 15°24' W 076°30'2524.7 1014.3
2014-Jul-25 03:00S 15°00' W 076°36'1818.0 1014.1
2014-Jul-25 02:00S 14°42' W 076°36'1918.9 1013.5
2014-Jul-25 01:00S 14°24' W 076°42'1918.9 1012.6
2014-Jul-25 00:00S 14°06' W 076°48'1918.9 1011.9
2014-Jul-24 23:00S 13°48' W 076°54'1918.9 1011.9
2014-Jul-24 22:00S 13°30' W 077°00'1918.9 1011.3
2014-Jul-24 21:00S 13°12' W 077°06'1818.0 1010.9
2014-Jul-24 20:00S 12°54' W 077°06'2524.7 1011.4
2014-Jul-24 19:00S 12°30' W 077°12'1918.9 1012.1
2014-Jul-24 18:00S 12°12' W 077°18'1313.4 1012.4
2014-Jul-24 17:00S 12°00' W 077°12'6 0.4 1013.6
2014-Jul-24 03:00S 12°00' W 077°06'0 0.0 1014.8
2014-Jul-23 22:00S 12°00' W 077°06'6 0.2 1013.1
2014-Jul-22 20:00S 12°00' W 077°12'6 5.9 1013.3
2014-Jul-22 19:00S 12°00' W 077°18'4615.4 1013.5
2014-Jul-22 16:00S 11°30' W 077°54'1716.8 1015.6
2014-Jul-22 15:00S 11°18' W 078°06'1313.4 1015.8
2014-Jul-22 14:00S 11°06' W 078°12'2221.5 1015.4
2014-Jul-22 13:00S 10°48' W 078°24'3517.4 1014.4
2014-Jul-22 11:00S 10°18' W 078°42'1313.4 1012.9
2014-Jul-22 10:00S 10°06' W 078°48'1716.8 1012.4
2014-Jul-22 09:00S 09°54' W 079°00'2221.5 1012.0
2014-Jul-22 08:00S 09°36' W 079°12'1313.4 1012.0
2014-Jul-22 07:00S 09°24' W 079°18'2221.5 1012.6
2014-Jul-22 06:00S 09°06' W 079°30'1313.4 1012.6
2014-Jul-22 05:00S 08°54' W 079°36'2221.6 1012.9
2014-Jul-22 04:00S 08°36' W 079°48'1313.4 1012.7
2014-Jul-22 03:00S 08°24' W 079°54'1716.9 1012.8
2014-Jul-22 02:00S 08°12' W 080°06'1919.0 1012.5
2014-Jul-22 01:00S 07°54' W 080°12'1716.9 1011.7
2014-Jul-22 00:00S 07°42' W 080°24'1313.4 1011.0
2014-Jul-21 23:00S 07°30' W 080°30'2221.6 1010.4
2014-Jul-21 22:00S 07°12' W 080°42'1716.9 1010.2
2014-Jul-21 21:00S 07°00' W 080°54'1919.0 1010.4
2014-Jul-21 20:00S 06°42' W 081°00'1313.4 1010.7
2014-Jul-21 19:00S 06°30' W 081°06'6 3.0 1012.2
2014-Jul-21 17:00S 06°36' W 081°06'0 0.0 1014.3
2014-Jul-21 16:00S 06°36' W 081°06'0 0.0 1015.3
2014-Jul-21 15:00S 06°36' W 081°06'6 2.0 1015.8
2014-Jul-21 12:00S 06°30' W 081°06'1716.9 1013.3
2014-Jul-21 11:00S 06°18' W 081°18'1919.0 1012.6
2014-Jul-21 10:00S 06°00' W 081°24'1313.4 1012.3
2014-Jul-21 09:00S 05°48' W 081°30'1818.0 1012.1
2014-Jul-21 08:00S 05°30' W 081°30'1818.0 1012.3
2014-Jul-21 07:00S 05°12' W 081°30'1818.0 1012.6
2014-Jul-21 06:00S 04°54' W 081°30'1818.0 1013.1
2014-Jul-21 05:00S 04°36' W 081°30'1919.0 1013.4
2014-Jul-21 04:00S 04°18' W 081°36'1818.0 1013.3
2014-Jul-21 03:00S 04°00' W 081°36'1818.0 1013.2
2014-Jul-21 02:00S 03°42' W 081°36'1818.0 1013.1
2014-Jul-21 01:00S 03°24' W 081°36'1313.4 1012.6
2014-Jul-21 00:00S 03°12' W 081°30'1818.0 1012.0
2014-Jul-20 23:00S 02°54' W 081°30'1818.0 1011.8
2014-Jul-20 22:00S 02°36' W 081°30'1818.0 1011.3
2014-Jul-20 21:00S 02°18' W 081°30'1313.4 1011.2
2014-Jul-20 20:00S 02°06' W 081°36'0 0.0 1011.5
2014-Jul-20 19:00S 02°06' W 081°36'6 3.0 1012.0
2014-Jul-20 17:00S 02°06' W 081°30'6 6.0 1013.5
2014-Jul-20 16:00S 02°12' W 081°30'0 0.0 1014.3
2014-Jul-20 15:00S 02°12' W 081°30'0 0.0 1014.6
2014-Jul-20 13:00S 02°12' W 081°30'1818.0 1014.1
2014-Jul-20 12:00S 01°54' W 081°30'1919.0 1013.4
2014-Jul-20 11:00S 01°36' W 081°24'1818.0 1012.8
2014-Jul-20 10:00S 01°18' W 081°24'1919.0 1012.2
2014-Jul-20 09:00S 01°00' W 081°18'1818.0 1012.1
2014-Jul-20 08:00S 00°42' W 081°18'1919.0 1011.8
2014-Jul-20 07:00S 00°24' W 081°12'3618.2 1012.0
2014-Jul-20 05:00N 00°12' W 081°06'   1012.5
Track history (hours):
 
Tides and Currents Weather Stations Pressure Air Temp Water Temp Dewpoint Dewpoint Depression Visibility Wind Speed Wind Dir Waves Ship Positions

Callsign BAREU11 (name unknown)

Last reported at 2014-Jul-30 05:00 UTC. Time now 2014-Jul-30 07:04 UTC.
Position S 26°42' W 073°24'.

Barometer 1018.8 mb

Date/timePositionNaut miles runAvg speedWind from/ knotsBaromVisibWave heightAir tempDewpointWater temp
2014-Jul-30 05:00S 26°42' W 073°24'1918.8 1018.8
2014-Jul-30 04:00S 27°00' W 073°18'1818.0 1018.5
2014-Jul-30 03:00S 27°18' W 073°18'1918.8 1018.6
2014-Jul-30 02:00S 27°36' W 073°12'1918.8 1018.2
2014-Jul-30 01:00S 27°54' W 073°06'1313.1 1017.9
2014-Jul-30 00:00S 28°06' W 073°00'1918.8 1017.9
2014-Jul-29 23:00S 28°24' W 072°54'1818.0 1018.0
2014-Jul-29 22:00S 28°42' W 072°54'1918.8 1017.4
2014-Jul-29 21:00S 29°00' W 072°48'5618.7 1018.0
2014-Jul-29 18:00S 29°54' W 072°30'1918.7 1019.5
2014-Jul-29 17:00S 30°12' W 072°24'1818.0 1019.9
2014-Jul-29 16:00S 30°30' W 072°24'1313.1 1020.8
2014-Jul-29 15:00S 30°42' W 072°18'1918.7 1020.8
2014-Jul-29 14:00S 31°00' W 072°12'1918.7 1020.6
2014-Jul-29 13:00S 31°18' W 072°06'3718.7 1021.2
2014-Jul-29 11:00S 31°54' W 071°54'1918.7 1021.9
2014-Jul-29 10:00S 32°12' W 071°48'1818.0 1021.6
2014-Jul-29 09:00S 32°30' W 071°48'1313.0 1020.8
2014-Jul-29 08:00S 32°42' W 071°42'1918.7 1020.5
2014-Jul-29 07:00S 33°00' W 071°36'0 0.0 1020.3
2014-Jul-29 01:00S 33°00' W 071°36'0 0.0 1019.1
2014-Jul-29 00:00S 33°00' W 071°36'0 0.0 1018.5
2014-Jul-28 13:00S 33°00' W 071°36'0 0.0 1019.6
2014-Jul-27 13:00S 33°00' W 071°36'1313.0 1020.4
2014-Jul-27 12:00S 32°48' W 071°42'1918.7 1020.7
2014-Jul-27 11:00S 32°30' W 071°48'1918.7 1020.4
2014-Jul-27 10:00S 32°12' W 071°54'1918.7 1019.7
2014-Jul-27 09:00S 31°54' W 072°00'1818.0 1020.4
2014-Jul-27 08:00S 31°36' W 072°00'2524.5 1020.0
2014-Jul-27 07:00S 31°12' W 072°06'1918.7 1020.1
2014-Jul-27 06:00S 30°54' W 072°12'1918.7 1020.2
2014-Jul-27 05:00S 30°36' W 072°18'1918.7 1021.0
2014-Jul-27 04:00S 30°18' W 072°24'1918.7 1021.2
2014-Jul-27 03:00S 30°00' W 072°30'1918.7 1020.9
2014-Jul-27 02:00S 29°42' W 072°36'2524.6 1020.7
2014-Jul-27 01:00S 29°18' W 072°42'1918.7 1020.5
2014-Jul-27 00:00S 29°00' W 072°48'1918.8 1020.1
2014-Jul-26 23:00S 28°42' W 072°54'1918.8 1019.7
2014-Jul-26 22:00S 28°24' W 073°00'1818.0 1019.3
2014-Jul-26 21:00S 28°06' W 073°00'1918.8 1018.8
2014-Jul-26 20:00S 27°48' W 073°06'1918.8 1018.7
2014-Jul-26 19:00S 27°30' W 073°12'1918.8 1019.0
2014-Jul-26 18:00S 27°12' W 073°18'1918.8 1019.4
2014-Jul-26 17:00S 26°54' W 073°24'1918.8 1020.2
2014-Jul-26 16:00S 26°36' W 073°30'1918.8 1020.3
2014-Jul-26 15:00S 26°18' W 073°36'1918.8 1020.4
2014-Jul-26 14:00S 26°00' W 073°42'2524.6 1020.4
2014-Jul-26 13:00S 25°36' W 073°48'3618.2 1020.1
2014-Jul-26 11:00S 25°00' W 073°54'1918.8 1019.3
2014-Jul-26 10:00S 24°42' W 074°00'1918.8 1018.6
2014-Jul-26 09:00S 24°24' W 074°06'1918.8 1018.7
2014-Jul-26 08:00S 24°06' W 074°12'7418.5 1019.0
2014-Jul-26 04:00S 22°54' W 074°30'1918.8 1020.0
2014-Jul-26 03:00S 22°36' W 074°36'1818.0 1019.9
2014-Jul-26 02:00S 22°18' W 074°36'1918.8 1019.1
2014-Jul-26 01:00S 22°00' W 074°42'1918.8 1018.3
2014-Jul-26 00:00S 21°42' W 074°48'1918.8 1018.3
2014-Jul-25 23:00S 21°24' W 074°54'1918.8 1017.3
2014-Jul-25 22:00S 21°06' W 075°00'1918.9 1016.9
2014-Jul-25 21:00S 20°48' W 075°06'2524.6 1016.7
2014-Jul-25 20:00S 20°24' W 075°12'1818.0 1016.7
2014-Jul-25 19:00S 20°06' W 075°12'1918.9 1017.1
2014-Jul-25 18:00S 19°48' W 075°18'2524.7 1017.9
2014-Jul-25 17:00S 19°24' W 075°24'3818.9 1018.5
2014-Jul-25 15:00S 18°48' W 075°36'1918.9 1018.3
2014-Jul-25 14:00S 18°30' W 075°42'1818.0 1018.1
2014-Jul-25 13:00S 18°12' W 075°42'1918.9 1017.1
2014-Jul-25 12:00S 17°54' W 075°48'1918.9 1016.0
2014-Jul-25 11:00S 17°36' W 075°54'1918.9 1015.0
2014-Jul-25 10:00S 17°18' W 076°00'2524.7 1013.9
2014-Jul-25 09:00S 16°54' W 076°06'1918.9 1013.4
2014-Jul-25 08:00S 16°36' W 076°12'1918.9 1013.8
2014-Jul-25 07:00S 16°18' W 076°18'3618.2 1014.2
2014-Jul-25 05:00S 15°42' W 076°24'1918.9 1013.9
2014-Jul-25 04:00S 15°24' W 076°30'2524.7 1014.3
2014-Jul-25 03:00S 15°00' W 076°36'1818.0 1014.1
2014-Jul-25 02:00S 14°42' W 076°36'1918.9 1013.5
2014-Jul-25 01:00S 14°24' W 076°42'1918.9 1012.6
2014-Jul-25 00:00S 14°06' W 076°48'1918.9 1011.9
2014-Jul-24 23:00S 13°48' W 076°54'1918.9 1011.9
2014-Jul-24 22:00S 13°30' W 077°00'1918.9 1011.3
2014-Jul-24 21:00S 13°12' W 077°06'1818.0 1010.9
2014-Jul-24 20:00S 12°54' W 077°06'2524.7 1011.4
2014-Jul-24 19:00S 12°30' W 077°12'1918.9 1012.1
2014-Jul-24 18:00S 12°12' W 077°18'1313.4 1012.4
2014-Jul-24 17:00S 12°00' W 077°12'6 0.4 1013.6
2014-Jul-24 03:00S 12°00' W 077°06'0 0.0 1014.8
2014-Jul-23 22:00S 12°00' W 077°06'6 0.2 1013.1
2014-Jul-22 20:00S 12°00' W 077°12'6 5.9 1013.3
2014-Jul-22 19:00S 12°00' W 077°18'4615.4 1013.5
2014-Jul-22 16:00S 11°30' W 077°54'1716.8 1015.6
2014-Jul-22 15:00S 11°18' W 078°06'1313.4 1015.8
2014-Jul-22 14:00S 11°06' W 078°12'2221.5 1015.4
2014-Jul-22 13:00S 10°48' W 078°24'3517.4 1014.4
2014-Jul-22 11:00S 10°18' W 078°42'1313.4 1012.9
2014-Jul-22 10:00S 10°06' W 078°48'1716.8 1012.4
2014-Jul-22 09:00S 09°54' W 079°00'2221.5 1012.0
2014-Jul-22 08:00S 09°36' W 079°12'1313.4 1012.0
2014-Jul-22 07:00S 09°24' W 079°18'2221.5 1012.6
2014-Jul-22 06:00S 09°06' W 079°30'1313.4 1012.6
2014-Jul-22 05:00S 08°54' W 079°36'2221.6 1012.9
2014-Jul-22 04:00S 08°36' W 079°48'1313.4 1012.7
2014-Jul-22 03:00S 08°24' W 079°54'1716.9 1012.8
2014-Jul-22 02:00S 08°12' W 080°06'1919.0 1012.5
2014-Jul-22 01:00S 07°54' W 080°12'1716.9 1011.7
2014-Jul-22 00:00S 07°42' W 080°24'1313.4 1011.0
2014-Jul-21 23:00S 07°30' W 080°30'2221.6 1010.4
2014-Jul-21 22:00S 07°12' W 080°42'1716.9 1010.2
2014-Jul-21 21:00S 07°00' W 080°54'1919.0 1010.4
2014-Jul-21 20:00S 06°42' W 081°00'1313.4 1010.7
2014-Jul-21 19:00S 06°30' W 081°06'6 3.0 1012.2
2014-Jul-21 17:00S 06°36' W 081°06'0 0.0 1014.3
2014-Jul-21 16:00S 06°36' W 081°06'0 0.0 1015.3
2014-Jul-21 15:00S 06°36' W 081°06'6 2.0 1015.8
2014-Jul-21 12:00S 06°30' W 081°06'1716.9 1013.3
2014-Jul-21 11:00S 06°18' W 081°18'1919.0 1012.6
2014-Jul-21 10:00S 06°00' W 081°24'1313.4 1012.3
2014-Jul-21 09:00S 05°48' W 081°30'1818.0 1012.1
2014-Jul-21 08:00S 05°30' W 081°30'1818.0 1012.3
2014-Jul-21 07:00S 05°12' W 081°30'1818.0 1012.6
2014-Jul-21 06:00S 04°54' W 081°30'1818.0 1013.1
2014-Jul-21 05:00S 04°36' W 081°30'1919.0 1013.4
2014-Jul-21 04:00S 04°18' W 081°36'1818.0 1013.3
2014-Jul-21 03:00S 04°00' W 081°36'1818.0 1013.2
2014-Jul-21 02:00S 03°42' W 081°36'1818.0 1013.1
2014-Jul-21 01:00S 03°24' W 081°36'1313.4 1012.6
2014-Jul-21 00:00S 03°12' W 081°30'1818.0 1012.0
2014-Jul-20 23:00S 02°54' W 081°30'1818.0 1011.8
2014-Jul-20 22:00S 02°36' W 081°30'1818.0 1011.3
2014-Jul-20 21:00S 02°18' W 081°30'1313.4 1011.2
2014-Jul-20 20:00S 02°06' W 081°36'0 0.0 1011.5
2014-Jul-20 19:00S 02°06' W 081°36'6 3.0 1012.0
2014-Jul-20 17:00S 02°06' W 081°30'6 6.0 1013.5
2014-Jul-20 16:00S 02°12' W 081°30'0 0.0 1014.3
2014-Jul-20 15:00S 02°12' W 081°30'0 0.0 1014.6
2014-Jul-20 13:00S 02°12' W 081°30'1818.0 1014.1
2014-Jul-20 12:00S 01°54' W 081°30'1919.0 1013.4
2014-Jul-20 11:00S 01°36' W 081°24'1818.0 1012.8
2014-Jul-20 10:00S 01°18' W 081°24'1919.0 1012.2
2014-Jul-20 09:00S 01°00' W 081°18'1818.0 1012.1
2014-Jul-20 08:00S 00°42' W 081°18'1919.0 1011.8
2014-Jul-20 07:00S 00°24' W 081°12'3618.2 1012.0
2014-Jul-20 05:00N 00°12' W 081°06'   1012.5

Dump ship's entire track history